www.pogodaiklimat.ru

Погода и климат >> Архив погоды >> Австралия >> Квинсленд >> Аэропорт Трепелл


ПОГОДА в Аэропорту Трепелл

  • Прогноз погоды в Аэропорту Трепелл
  • Монитор погоды в Аэропорту Трепелл

АРХИВ ПОГОДЫ в Аэропорту Трепелл

Время (UTC), дата Ветер
(напр.,м/с)
 
Видим.   Явления Облачность Т
(С)
Тd
(С)
f
(%)
Тe
(С)
Тes
(С)
Комфортность P
(гПа)
Po
(гПа)
Тmin
(С)
Tmax
(С)
R
(мм)
R24
(мм)
S
(см)
23 12.09 В 3 н/о н/о +21.8 -2.1 20 +21 +21 комфорт 1024.3 993.4
02 13.09 ЮВ 5 н/о н/о +28.5 -2.6 13 +26 +26 жарко 1022.6 991.8 +9.8
05 13.09 Ю 7 н/о н/о +30.3 -3.4 11 +27 +27 жарко 1019.8 989.1
08 13.09 ЮВ 6 н/о н/о +28.4 -2.6 13 +26 +26 жарко 1019.5 988.8
11 13.09 Ю 3 н/о н/о +20.2 -5.6 17 +20 +20 1020.9 990.1
14 13.09 Ю 3 н/о н/о +16.4 -6.0 21 +16 +16 1020.8 990.0 +31.4
17 13.09 ЮЗ 3 н/о н/о +15.0 -7.1 21 +15 +15 1020.1 989.4
20 13.09 ЮЗ 2 н/о н/о +10.7 -9.0 24 +11 +11 1020.8 990.0
23 13.09 ЮВ 3 н/о н/о +21.8 -8.8 12 +20 +20 1022.7 991.9
02 14.09 ЮВ 4 н/о н/о +31.0 -8.8 7 +27 +27 жарко 1021.0 990.2 +10.7
05 14.09 ЮВ 6 н/о н/о +32.1 -9.9 6 +28 +28 жарко 1018.1 987.4
08 14.09 Ю 4 н/о н/о +29.4 -9.9 7 +25 +25 комфорт 1017.9 987.2
11 14.09 Ю 3 н/о н/о +21.4 -11.4 10 +20 +20 1019.0 988.3
14 14.09 ЮЗ 2 н/о н/о +14.6 -12.6 14 +15 +15 1018.6 987.9 +32.8
17 14.09 З 3 н/о н/о +14.7 -11.6 15 +14 +14 1017.9 987.2
20 14.09 З 3 н/о н/о +11.8 -10.4 20 +11 +11 1018.9 988.2
23 14.09 С 5 н/о н/о +23.1 -7.8 12 +21 +21 комфорт 1021.1 990.3
02 15.09 С 6 н/о н/о +30.7 -1.9 12 +27 +27 жарко 1019.4 988.7 +11.3
05 15.09 С 5 н/о н/о +31.2 -4.0 10 +28 +28 жарко 1016.7 986.1
08 15.09 С 2 н/о н/о +29.5 -6.7 9 +26 +26 жарко 1016.7 986.1
11 15.09 СЗ 4 н/о н/о +21.8 -6.8 14 +20 +20 1017.9 987.2
14 15.09 З 2 н/о н/о +17.8 -4.8 21 +18 +18 1017.2 986.6 +32.9
17 15.09 С 3 н/о н/о +14.8 -6.1 23 +14 +14 1016.6 986.0
20 15.09 СВ 3 н/о н/о +16.5 -3.0 26 +16 +16 1018.0 987.3
23 15.09 С 7 н/о н/о +24.1 -4.1 15 +22 +22 комфорт 1019.7 989.0
02 16.09 С 7 н/о н/о +29.9 -2.6 12 +27 +27 жарко 1018.4 987.7 +12.9
05 16.09 С 5 н/о н/о +31.3 -5.3 9 +27 +27 жарко 1015.8 985.2
08 16.09 З 1 н/о н/о +30.3 -4.7 10 +27 +27 жарко 1015.5 984.9
11 16.09 СВ 1 н/о н/о +20.7 -5.2 17 +21 +21 комфорт 1016.8 986.2
14 16.09 С 2 н/о н/о +18.9 -5.2 19 +19 +19 1016.3 985.7 +33.1
17 16.09 С 4 н/о н/о +14.8 -5.5 24 +14 +14 1015.3 984.7
20 16.09 С 4 н/о н/о +15.2 -4.7 25 +15 +15 1016.5 985.9
23 16.09 С 6 н/о н/о +25.6 +2.3 22 +24 +24 комфорт 1018.6 987.9
02 17.09 С 3 н/о н/о +31.9 -2.2 11 +28 +28 жарко 1017.6 986.9 +13.4
05 17.09 ЮВ 4 н/о н/о +33.5 -3.7 9 +30 +30 жарко 1015.3 984.7
08 17.09 Ю 5 н/о н/о +32.4 -4.5 9 +29 +29 жарко 1015.2 984.6
11 17.09 ЮЗ 2 н/о н/о +23.9 -6.2 13 +22 +22 комфорт 1017.4 986.7
14 17.09 ЮЗ 2 н/о н/о +19.3 -5.6 18 +20 +20 1018.1 987.4 +34.7
17 17.09 ЮЗ 4 н/о н/о +16.8 -1.3 29 +17 +17 1018.0 987.3
20 17.09 ЮЗ 4 н/о н/о +14.0 -1.6 34 +13 +13 1019.7 989.0
23 17.09 ЮВ 4 н/о н/о +21.6 -1.6 21 +21 +21 комфорт 1021.4 990.6
02 18.09 В 3 н/о н/о +28.9 -4.5 11 +26 +26 жарко 1019.3 988.6 +13.4
05 18.09 Ю 6 н/о н/о +32.5 -6.0 8 +28 +28 жарко 1016.3 985.7
08 18.09 Ю 5 н/о н/о +30.2 -9.4 7 +26 +26 жарко 1016.3 985.7
11 18.09 Ю 2 н/о н/о +20.4 -11.0 11 +20 +20 1018.2 987.5
14 18.09 ЮЗ 3 н/о н/о +15.7 -12.6 13 +16 +16 1018.5 987.8 +33.4
17 18.09 ЮЗ 3 н/о н/о +14.2 -14.8 12 +14 +14 1017.6 986.9
20 18.09 ЮЗ 2 н/о н/о +11.5 -15.9 13 +11 +11 1018.1 987.4
23 18.09 СВ 5 н/о н/о +21.9 -11.1 10 +20 +20 1019.1 988.4
02 19.09 В 2 н/о н/о +30.1 -11.4 6 +26 +26 жарко 1017.0 986.4 +10.4
05 19.09 В 4 н/о н/о +32.3 -12.1 5 +28 +28 жарко 1013.6 983.1
08 19.09 СВ 3 н/о н/о +30.9 -13.1 5 +26 +26 жарко 1013.0 982.5
11 19.09 С 3 н/о н/о +21.5 -12.7 9 +20 +20 1013.9 983.4
14 19.09 штиль 0 н/о н/о +16.8 -12.7 12 +17 +17 1014.1 983.5 +34.0
17 19.09 СЗ 4 н/о н/о +15.1 -13.1 13 +15 +15 1013.2 982.7
20 19.09 С 3 н/о н/о +13.5 -13.4 14 +13 +13 1014.5 983.9

 

Местоположение метеостанции Аэропорт Трепелл (Квинсленд, Австралия): широта -21.83 долгота 140.88 высота над уровнем моря 267 м.

В архиве по умолчанию представлена погода в Аэропорту Трепелл за последнюю неделю. Архивные данные за месяц целиком и за предыдущие месяцы, начиная с января 2011 года, Вы можете получить, выбрав интересующий диапазон дат из раскрывающегося списка и нажав кнопку "Ввод!".


*Определитесь, кто Вы:
робот инопланетянин человек

Внимание! Время в таблицах - всемирное. Для получения местного времени необходимо прибавить поправку, которая равна 10 ч.

Смотрите также архив погоды в соседних городах и на ближайших метеорологических станциях:

Погода в Фосфат-Хилл (Квинсленд, Австралия) (99 км)
Погода в Клонкарри (Квинсленд, Австралия) (135 км)
Погода в Джулия Крик (Квинсленд, Австралия) (156 км)
Погода на Маунт-Айза (Квинсленд, Австралия) (193 км)
Погода в Нью Мэй Даун (Квинсленд, Австралия) (211 км)
Погода на Озере Джулиус (Квинсленд, Австралия) (225 км)
Погода в Уинтоне (Квинсленд, Австралия) (235 км)
Погода в Ричмонд аэропорту (Квинсленд, Австралия) (263 км)
Погода в Камоауиле (Квинсленд, Австралия) (358 км)
Погода в Хьюэндене (Квинсленд, Австралия) (365 км)

Пояснения к столбцам:

Ветер - указаны скорость ветра в м/с - средняя за 10 мин, порывы в срок и между сроками (в фигурных скобках) и направление, откуда дует ветер: С - северный, СВ - северо-восточный, В - восточный, ЮВ - юго-восточный, Ю - южный, ЮЗ - юго-западный, З - западный, СЗ - северо-западный.
Видимость - горизонтальная дальность видимости в метрах или километрах. При видимости от 1 до 10 км при отсутствии осадков обычно наблюдается дымка, при ухудшении видимости до 1 км и менее - туман. В сухую погоду видимость может ухудшаться дымом, пылью или мглою.
Явления - указаны атмосферные явления, наблюдавшиеся в срок или в последний час перед сроком; фигурными скобками обозначены явления, наблюдавшиеся между сроками (за 1-3 часа до срока); квадратными скобками обозначены град или гололедные отложения с указанием их диаметра в мм.
Облачность - указаны через наклонную черту общая и нижняя облачность в баллах и высота нижней границы облаков в метрах; квадратными скобками обозначены формы облаков: Ci - перистые, Cs - перисто-слоистые, Cc - перисто-кучевые, Ac - высококучевые, As - высокослоистые, Sc - слоисто-кучевые, Ns - слоисто-дождевые, Cu - кучевые, Cb - кучево-дождевые. Подробнее классификацию облаков см. в Атласе облаков (PDF).
T - Температура воздуха - температура, измеренная на высоте 2 м над землей.
Td - Температура точки росы - температура, при понижении до которой содержащийся в воздухе водяной пар достигнет насыщения.
f - Относительная влажность воздуха - влажноcть воздуха, измеренная на высоте 2 м над землей.
Te - Эффективная температура - температура, которую ощущает одетый по сезону человек в тени. Характеристика душности погоды. При расчете учитывается влияние влажности воздуха и скорости ветра на теплоощущения человека.
Tes - Эффективная температура на солнце - температура, которую ощущает человек, с поправкой на солнечный нагрев. Характеристика знойности погоды. Зависит от высоты солнца над горизонтом, облачности и скорости ветра. Ночью, в пасмурную погоду, а также при ветре 12 м/с и более поправка равна нулю.
P - Атмосферное давление - приведенное к уровню моря атмосферное давление.
Po - Атмосферное давление - измеренное на уровне метеостанции атмосферное давление.
Tmin - Минимальная температура - минимум температуры воздуха на высоте 2 м над землей.
Tmax - Максимальная температура - максимум температуры воздуха на высоте 2 м над землей.
R - Количество осадков - Количество выпавших осадков за период времени, мм. При наведении курсора мыши на число - период времени, за который выпало указанное количество осадков.
R24 - Количество осадков - Количество выпавших осадков за 24 часа, мм.
S - Снежный покров - Высота снежного покрова, см. При наведении курсора мыши на число - состояние снежного покрова и степень покрытия местности в баллах.